[[{"header":{"parameterUnit":"m.s-1","parameterCategory":1,"la1":30.2991,"la2":30.254,"lo1":-89.0895,"lo2":-89.0444,"dy":0.0017,"dx":0.0017,"nx":28,"ny":28,"refTime":"2024-02-13T03:00:00:Z","depth":0,"parameterNumber":2,"parameterNumberName":"U-component_of_WINDS"},"data":[0,0,0,0,0,0,0,0,0,0,0,0,0,0,0,0,0,0,0,0,0,0,0,0,0,0,0,0,0,0,0,0,0,0,0,0,0,0,0,0,0,0,0,0,0,0,0,0,0,0,0,0,0,0,0,0,0,0,-2.9827,-2.9826,0,-2.978,-2.978,-2.9779,-2.9652,-2.9649,-2.9646,-2.9644,-2.96,-2.9601,-2.9602,0,0,0,0,0,0,0,0,0,0,0,0,0,-2.981,-2.9811,-2.9827,-2.9826,-2.9826,-2.978,-2.978,-2.9779,-2.9652,-2.9649,-2.9646,-2.9643,-2.9599,-2.9601,-2.9602,0,0,0,0,0,0,0,0,0,0,0,0,0,-2.9796,-2.9811,-2.9827,-2.9757,-2.975,-2.978,-2.978,-2.9779,-2.9653,-2.9649,-2.9645,-2.9641,-2.9599,-2.9601,-2.9603,-2.9698,0,0,-2.9609,-2.961,0,0,0,0,0,0,0,0,-2.9797,-2.9797,-2.9768,-2.9762,-2.9754,-2.9718,-2.9757,-2.9752,-2.9654,-2.969,-2.9644,-2.9639,-2.9642,-2.9641,-2.9641,-2.9696,-2.9694,-2.9609,-2.961,-2.9611,-2.9612,0,0,0,0,0,0,0,-2.9798,-2.9798,-2.9808,-2.9767,-2.9759,-2.9729,-2.9723,-2.9756,-2.969,-2.9687,-2.9677,-2.9673,-2.9638,-2.9639,-2.9639,-2.9693,-2.9609,-2.9611,-2.9612,-2.9613,-2.9827,-2.9831,0,0,0,0,0,0,-2.9809,-2.98,-2.981,-2.9807,-2.9766,-2.9733,-2.9725,-2.9734,-2.9689,-2.9678,-2.9677,-2.9668,-2.9638,-2.9637,-2.9637,-2.9747,-2.9611,-2.9613,-2.9614,-2.9822,-2.9828,-2.9833,0,0,0,0,0,0,-2.9809,-2.9811,-2.9812,-2.9801,-2.9799,-2.9738,-2.9748,-2.9735,-2.9736,-2.9682,-2.967,-2.969,-2.9635,-2.9634,-2.9684,-2.9744,-2.9614,-2.9616,-2.9817,-2.9824,-2.983,-2.9968,0,0,0,0,0,0,-2.9809,-2.9811,-2.9846,-2.9802,-2.98,-2.9859,-2.9751,-2.9737,-2.974,-2.9727,-2.9691,-2.9681,-2.9631,-2.9682,-2.9686,-2.9744,-2.9618,-2.9811,-2.982,-2.9828,-2.9958,-2.9978,-2.9996,0,0,0,0,0,-2.9809,-2.9887,-2.9848,-2.985,-2.9841,-2.9862,-2.9861,-2.98,-2.9745,-2.978,-2.9746,-2.9682,-2.9737,-2.9688,-2.9692,-2.9752,-2.9807,-2.9818,-2.9827,-2.9949,-2.9974,-2.9996,0,0,0,0,0,0,-2.9939,-2.9879,-2.9836,-2.9902,-2.9888,-2.9841,-2.9882,-2.9829,-2.9831,-2.9819,-2.9745,-2.9739,-2.98,-2.978,-2.9727,-2.9843,-2.9762,-2.9773,-2.9853,-2.9877,-2.9895,-2.9899,-2.9619,0,0,0,0,0,-2.9975,-2.9996,-2.9943,-3.0007,-3.0002,-2.9944,-2.9951,-2.9906,-2.9889,-2.9882,-2.9851,-2.9839,-2.9853,-2.9863,-2.9873,-2.9954,-2.9946,-2.9998,-3.0017,-3.0033,-3.0044,-3.0088,-3.0111,-2.9865,-2.9865,-2.9865,0,0,-3.0051,-3.0021,-3.0038,-3.0032,-3.0016,-3.0041,-2.994,-2.997,-2.9988,-2.9887,-2.9932,-2.991,-2.9891,-2.9958,-2.9985,-2.9943,-3.011,-3.0046,-3.0059,-3.0061,-3.01,-3.0124,-3.0144,-2.9872,-2.9871,-2.987,0,0,-3.0201,-3.018,-3.0231,-3.0217,-3.0194,-3.0155,-3.0168,-3.0129,-3.011,-3.0154,-3.008,-3.0102,-3.0127,-3.0117,-3.0115,-3.0265,-3.0208,-3.027,-3.037,-3.0414,-3.0434,-3.045,-3.0505,-3.0526,-3.0281,-3.0281,-3.0281,0,-3.0297,-3.0331,-3.0264,-3.03,-3.03,-3.021,-3.0263,-3.0253,-3.0235,-3.0238,-3.0191,-3.0223,-3.0203,-3.0268,-3.0304,-3.0305,-3.0319,-3.0274,-3.0436,-3.0452,-3.0467,-3.0519,-3.0539,-3.0289,-3.0288,-3.0287,-3.0287,0,-3.0452,-3.0476,-3.0521,-3.0506,-3.0511,-3.0555,-3.0497,-3.0511,-3.0467,-3.0434,-3.0482,-3.0456,-3.046,-3.0472,-3.0428,-3.0531,-3.0506,-3.0449,-3.0366,-3.0499,-3.0547,-3.0566,-3.03,-3.0297,-3.0295,-3.0293,0,0,-3.0681,-3.063,-3.0648,-3.0641,-3.061,-3.0628,-3.067,-3.0673,-3.0687,-3.0679,-3.0713,-3.0737,-3.0685,-3.0683,-3.0638,-3.0677,-3.08,-3.0615,-3.0613,-3.0652,-3.0913,-3.0957,-3.0981,-3.0762,-3.0765,-3.0768,-3.0916,0,-3.0824,-3.089,-3.0833,-3.0911,-3.0934,-3.085,-3.0886,-3.0873,-3.0844,-3.086,-3.0828,-3.0848,-3.0776,-3.0775,-3.0809,-3.0778,-3.0851,-3.0766,-3.0794,-3.0796,-3.0802,-3.1005,-3.1051,-3.1192,-3.0933,-3.0937,-3.0939,0,-3.0998,-3.0998,-3.1079,-3.1045,-3.1052,-3.1086,-3.1086,-3.1102,-3.1086,-3.1062,-3.1062,-3.1007,-3.1047,-3.0967,-3.1022,-3.0965,-3.0974,-3.096,-3.0964,-3.0965,-3.0876,-3.1013,-3.1235,-3.1257,-3.0967,-3.0965,-3.0963,0,-3.116,-3.1179,-3.123,-3.1227,-3.1188,-3.1214,-3.12,-3.1179,-3.1186,-3.1186,-3.119,-3.1196,-3.1199,-3.1206,-3.1155,-3.1101,-3.1218,-3.1132,-3.1201,-3.1203,-3.123,-3.1229,-3.1458,-3.1235,-3.1234,-3.1234,-3.1233,0,-3.1326,-3.1378,-3.1302,-3.1334,-3.1392,-3.1327,-3.1386,-3.1363,-3.1346,-3.1373,-3.1301,-3.1328,-3.1259,-3.128,-3.124,-3.1294,-3.1295,-3.1279,-3.1268,-3.1286,-3.1288,-3.1291,-3.128,-3.1239,-3.1238,-3.1237,-3.1236,0,-3.1515,-3.1466,-3.1516,-3.1477,-3.1468,-3.1512,-3.1479,-3.1507,-3.1474,-3.151,-3.1514,-3.1463,-3.1484,-3.1434,-3.1448,-3.1421,-3.1498,-3.1471,-3.1504,-3.1496,-3.1568,-3.1563,-3.1807,-3.1837,-3.1594,-3.1596,-3.1598,0,-3.1624,-3.1663,-3.1628,-3.164,-3.163,-3.1651,-3.1658,-3.1596,-3.1606,-3.1592,-3.1624,-3.1638,-3.1647,-3.1685,-3.165,-3.166,-3.1634,-3.1719,-3.1635,-3.1653,-3.1637,-3.1636,-3.164,-3.1736,-3.1739,-3.1742,-3.1744,0,-3.1824,-3.1798,-3.181,-3.1815,-3.1825,-3.1826,-3.1821,-3.1836,-3.1771,-3.1787,-3.1807,-3.1814,-3.1828,-3.1845,-3.1848,-3.1835,-3.178,-3.1771,-3.1787,-3.1806,-3.1824,-3.1817,-3.1552,-3.1765,-3.1763,-3.1761,-3.176,-3.1759,-3.1977,-3.2009,-3.1989,-3.2006,-3.1996,-3.1995,-3.202,-3.1991,-3.2007,-3.2013,-3.1977,-3.2006,-3.1991,-3.199,-3.1982,-3.2006,-3.1967,-3.1991,-3.1997,-3.2005,-3.2017,-3.182,-3.2006,-3.2005,-3.2004,-3.2004,-3.2003,0,-3.2174,-3.2158,-3.2174,-3.2171,-3.2185,-3.2131,-3.2124,-3.214,-3.2166,-3.2157,-3.2167,-3.2192,-3.2209,-3.2176,-3.2187,-3.2213,-3.2188,-3.2218,-3.2216,-3.2214,-3.205,-3.2035,-3.2238,-3.2238,-3.2238,-3.2238,-3.2238,-3.2238,-3.2278,-3.2329,-3.2303,-3.2349,-3.2333,-3.236,-3.2362,-3.2361,-3.2353,-3.2384,-3.2397,-3.2376,-3.2358,-3.2368,-3.2381,-3.2371,-3.238,-3.2419,-3.2401,-3.2248,-3.2225,-3.2204,-3.2189,-3.2421,-3.2421,-3.2563,-3.2564,-3.2565]},{"header":{"parameterUnit":"m.s-1","parameterCategory":1,"la1":30.2991,"la2":30.254,"lo1":-89.0895,"lo2":-89.0444,"dy":0.0017,"dx":0.0017,"nx":28,"ny":28,"refTime":"2024-02-13T03:00:00:Z","depth":0,"parameterNumber":3,"parameterNumberName":"V-component_of_WINDS"},"data":[0,0,0,0,0,0,0,0,0,0,0,0,0,0,0,0,0,0,0,0,0,0,0,0,0,0,0,0,0,0,0,0,0,0,0,0,0,0,0,0,0,0,0,0,0,0,0,0,0,0,0,0,0,0,0,0,0,0,0.1635,0.1635,0,0.1666,0.1666,0.1667,0.1716,0.1717,0.1718,0.1719,0.1748,0.1748,0.1748,0,0,0,0,0,0,0,0,0,0,0,0,0,0.1617,0.1617,0.1635,0.1635,0.1636,0.1666,0.1666,0.1667,0.1716,0.1717,0.1718,0.1719,0.1748,0.1748,0.1748,0,0,0,0,0,0,0,0,0,0,0,0,0,0.1634,0.1617,0.1635,0.1664,0.1667,0.1666,0.1666,0.1667,0.1716,0.1717,0.1719,0.172,0.1748,0.1748,0.1748,0.172,0,0,0.1748,0.1748,0,0,0,0,0,0,0,0,0.1633,0.1635,0.1659,0.1662,0.1665,0.1689,0.1671,0.1685,0.1715,0.1697,0.1719,0.172,0.1727,0.1729,0.1732,0.1722,0.1723,0.1748,0.1748,0.1748,0.1748,0,0,0,0,0,0,0,0.1632,0.1633,0.1647,0.166,0.1663,0.1675,0.1679,0.1674,0.1704,0.1699,0.1703,0.1706,0.1729,0.1732,0.1733,0.1723,0.1748,0.1748,0.1748,0.1748,0.1691,0.169,0,0,0,0,0,0,0.1626,0.1632,0.1646,0.1648,0.1652,0.1674,0.1679,0.168,0.1704,0.1709,0.1704,0.1708,0.1731,0.1733,0.1734,0.1702,0.1748,0.1748,0.1748,0.1693,0.1691,0.1689,0,0,0,0,0,0,0.1626,0.1627,0.1645,0.1641,0.1644,0.1673,0.1674,0.168,0.1682,0.1709,0.1714,0.1702,0.1732,0.1734,0.1723,0.1704,0.1748,0.1748,0.1694,0.1692,0.169,0.1638,0,0,0,0,0,0,0.1625,0.1627,0.1617,0.1641,0.1644,0.1634,0.1673,0.1679,0.1682,0.1687,0.1707,0.1712,0.1733,0.1723,0.1723,0.1704,0.1747,0.1696,0.1693,0.1691,0.1642,0.1635,0.1629,0,0,0,0,0,0.1624,0.16,0.1616,0.1617,0.1632,0.1633,0.1635,0.1661,0.168,0.167,0.1687,0.1711,0.1706,0.1722,0.1722,0.1703,0.1698,0.1694,0.1691,0.1645,0.1636,0.1629,0,0,0,0,0,0,0.1573,0.1604,0.1622,0.1605,0.1616,0.1641,0.1629,0.1651,0.1656,0.166,0.1691,0.1695,0.168,0.1691,0.1707,0.1677,0.1706,0.1702,0.167,0.1662,0.1656,0.1653,0.1747,0,0,0,0,0,0.156,0.1558,0.1585,0.1568,0.1573,0.16,0.1601,0.162,0.1632,0.1637,0.1653,0.1664,0.1665,0.1664,0.1667,0.1644,0.1649,0.1632,0.1625,0.1619,0.1615,0.1604,0.1596,0.1679,0.1679,0.1679,0,0,0.1532,0.1549,0.1546,0.1558,0.1569,0.1565,0.1603,0.1598,0.1596,0.1636,0.1627,0.1639,0.1653,0.1636,0.1629,0.1644,0.1594,0.1615,0.161,0.161,0.1599,0.1591,0.1584,0.1677,0.1677,0.1677,0,0,0.148,0.1493,0.1479,0.149,0.1506,0.1524,0.1521,0.1543,0.1553,0.1545,0.1575,0.1572,0.1573,0.1582,0.1586,0.1538,0.1559,0.1538,0.1502,0.149,0.1483,0.1478,0.1459,0.1452,0.1534,0.1534,0.1534,0,0.1443,0.144,0.147,0.1463,0.1467,0.1504,0.149,0.1499,0.1514,0.1516,0.1533,0.1535,0.1547,0.1532,0.152,0.1523,0.152,0.1534,0.1482,0.1477,0.1472,0.1454,0.1447,0.1531,0.1531,0.1532,0.1532,0,0.1393,0.1391,0.1378,0.1393,0.1396,0.1385,0.1413,0.1412,0.1431,0.1448,0.1438,0.1454,0.146,0.1459,0.1477,0.1446,0.1455,0.1477,0.1506,0.146,0.1445,0.1438,0.1527,0.1528,0.1529,0.153,0,0,0.1307,0.134,0.1334,0.1341,0.1362,0.1361,0.1352,0.1359,0.1357,0.1367,0.1359,0.136,0.138,0.1385,0.1405,0.1395,0.1354,0.1418,0.1419,0.1404,0.132,0.1302,0.1294,0.137,0.1368,0.1368,0.1318,0,0.1258,0.1245,0.1272,0.1253,0.125,0.1286,0.1279,0.129,0.1306,0.1305,0.1322,0.1322,0.1349,0.1352,0.1344,0.1361,0.1337,0.1365,0.1362,0.1361,0.1355,0.1286,0.1267,0.122,0.1312,0.1311,0.1311,0,0.1199,0.1206,0.1186,0.1208,0.1208,0.1201,0.1209,0.1209,0.1223,0.1235,0.124,0.1264,0.1256,0.1286,0.1275,0.1293,0.1294,0.1302,0.1301,0.13,0.1332,0.1282,0.1205,0.1197,0.1301,0.1302,0.1303,0,0.1136,0.1141,0.113,0.1135,0.1161,0.1155,0.1165,0.1181,0.1183,0.119,0.1192,0.1198,0.12,0.1204,0.1228,0.1248,0.1214,0.1246,0.1223,0.1222,0.1213,0.1212,0.1133,0.1216,0.1216,0.1216,0.1216,0,0.1077,0.1063,0.1102,0.1095,0.1081,0.1112,0.1096,0.111,0.1124,0.112,0.1152,0.1147,0.118,0.1179,0.1198,0.1185,0.1187,0.1195,0.12,0.1192,0.119,0.1191,0.1194,0.1214,0.1214,0.1215,0.1215,0,0.1004,0.103,0.102,0.1046,0.1052,0.104,0.1062,0.1056,0.1074,0.1068,0.1068,0.1096,0.1096,0.1121,0.1127,0.114,0.1118,0.113,0.1113,0.1116,0.1091,0.1093,0.1009,0.0999,0.1088,0.1088,0.1087,0,0.0964,0.0954,0.0979,0.0979,0.0988,0.0987,0.099,0.1021,0.1022,0.1037,0.1029,0.1032,0.1036,0.1034,0.1054,0.1058,0.1069,0.1039,0.107,0.1061,0.1067,0.1066,0.1065,0.1032,0.1031,0.103,0.103,0,0.0889,0.0903,0.0906,0.0913,0.0915,0.0922,0.0931,0.0929,0.0963,0.0963,0.0963,0.0966,0.0972,0.0974,0.0982,0.0992,0.1015,0.102,0.1015,0.1005,0.0995,0.0998,0.1094,0.1021,0.1022,0.1023,0.1023,0.1024,0.0831,0.0823,0.084,0.0842,0.0852,0.086,0.0856,0.0873,0.0875,0.0882,0.09,0.0898,0.0912,0.0925,0.0933,0.0931,0.0946,0.0939,0.0936,0.0934,0.0928,0.0997,0.0933,0.0933,0.0934,0.0934,0.0934,0,0.0757,0.0769,0.0771,0.0783,0.0784,0.0808,0.082,0.0819,0.0816,0.0828,0.0832,0.0832,0.0834,0.0855,0.086,0.0854,0.0865,0.0854,0.0854,0.0855,0.0915,0.0919,0.0845,0.0845,0.0845,0.0845,0.0845,0.0845,0.0718,0.0707,0.0722,0.0716,0.0729,0.0727,0.0732,0.0739,0.0748,0.0748,0.075,0.0764,0.0779,0.0785,0.0788,0.0794,0.0793,0.0778,0.0787,0.0843,0.0851,0.0859,0.0863,0.0778,0.0778,0.0728,0.0727,0.0727]}]]